Year,Month,Day,Hour,Minute,Value (Times are PST for windgust in km/hr)
2016,03,02,00,00,22.50
2016,03,02,00,01,24.20
2016,03,02,00,02,22.50
2016,03,02,00,03,24.20
2016,03,02,00,04,24.20
2016,03,02,00,05,24.20
2016,03,02,00,06,25.70
2016,03,02,00,07,27.40
2016,03,02,00,08,29.00
2016,03,02,00,09,30.60
2016,03,02,00,10,30.60
2016,03,02,00,11,32.20
2016,03,02,00,12,32.20
2016,03,02,00,13,37.00
2016,03,02,00,14,35.40
2016,03,02,00,15,35.40
2016,03,02,00,16,29.00
2016,03,02,00,17,29.00
2016,03,02,00,18,29.00
2016,03,02,00,19,33.80
2016,03,02,00,20,30.60
2016,03,02,00,21,29.00
2016,03,02,00,22,29.00
2016,03,02,00,23,33.80
2016,03,02,00,24,37.00
2016,03,02,00,25,38.60
2016,03,02,00,26,40.20
2016,03,02,00,27,40.20
2016,03,02,00,28,40.20
2016,03,02,00,29,41.80
2016,03,02,00,30,40.20
2016,03,02,00,31,43.50
2016,03,02,00,32,41.80
2016,03,02,00,33,40.20
2016,03,02,00,34,38.60
2016,03,02,00,35,33.80
2016,03,02,00,36,35.40
2016,03,02,00,37,38.60
2016,03,02,00,38,38.60
2016,03,02,00,39,38.60
2016,03,02,00,40,37.00
2016,03,02,00,41,37.00
2016,03,02,00,42,38.60
2016,03,02,00,43,40.20
2016,03,02,00,44,35.40
2016,03,02,00,45,37.00
2016,03,02,00,46,38.60
2016,03,02,00,47,38.60
2016,03,02,00,48,40.20
2016,03,02,00,49,38.60
2016,03,02,00,50,37.00
2016,03,02,00,51,38.60
2016,03,02,00,52,38.60
2016,03,02,00,53,38.60
2016,03,02,00,54,37.00
2016,03,02,00,55,38.60
2016,03,02,00,56,37.00
2016,03,02,00,57,37.00
2016,03,02,00,58,37.00
2016,03,02,00,59,40.20
2016,03,02,01,00,37.00
2016,03,02,01,01,35.40
2016,03,02,01,02,35.40
2016,03,02,01,03,33.80
2016,03,02,01,04,33.80
2016,03,02,01,05,30.60
2016,03,02,01,06,33.80
2016,03,02,01,07,33.80
2016,03,02,01,08,32.20
2016,03,02,01,09,32.20
2016,03,02,01,10,32.20
2016,03,02,01,11,30.60
2016,03,02,01,12,30.60
2016,03,02,01,13,29.00
2016,03,02,01,14,27.40
2016,03,02,01,15,27.40
2016,03,02,01,16,27.40
2016,03,02,01,17,29.00
2016,03,02,01,18,27.40
2016,03,02,01,19,27.40
2016,03,02,01,20,25.70
2016,03,02,01,21,25.70
2016,03,02,01,22,25.70
2016,03,02,01,23,24.20
2016,03,02,01,24,22.50
2016,03,02,01,25,17.70
2016,03,02,01,26,19.30
2016,03,02,01,27,25.70
2016,03,02,01,28,25.70
2016,03,02,01,29,27.40
2016,03,02,01,30,24.20
2016,03,02,01,31,24.20
2016,03,02,01,32,22.50
2016,03,02,01,33,20.90
2016,03,02,01,34,20.90
2016,03,02,01,35,20.90
2016,03,02,01,36,24.20
2016,03,02,01,37,24.20
2016,03,02,01,38,22.50
2016,03,02,01,39,24.20
2016,03,02,01,40,24.20
2016,03,02,01,41,24.20
2016,03,02,01,42,25.70
2016,03,02,01,43,20.90
2016,03,02,01,44,22.50
2016,03,02,01,45,20.90
2016,03,02,01,46,16.10
2016,03,02,01,47,19.30
2016,03,02,01,48,17.70
2016,03,02,01,49,20.90
2016,03,02,01,50,24.20
2016,03,02,01,51,24.20
2016,03,02,01,52,25.70
2016,03,02,01,53,25.70
2016,03,02,01,54,25.70
2016,03,02,01,55,27.40
2016,03,02,01,56,30.60
2016,03,02,01,57,29.00
2016,03,02,01,58,25.70
2016,03,02,01,59,24.20
2016,03,02,02,00,20.90
2016,03,02,02,01,19.30
2016,03,02,02,02,19.30
2016,03,02,02,03,17.70
2016,03,02,02,04,14.50
2016,03,02,02,05,12.90
2016,03,02,02,06,14.50
2016,03,02,02,07,14.50
2016,03,02,02,08,17.70
2016,03,02,02,09,17.70
2016,03,02,02,10,19.30
2016,03,02,02,11,20.90
2016,03,02,02,12,20.90
2016,03,02,02,13,20.90
2016,03,02,02,14,20.90
2016,03,02,02,15,19.30
2016,03,02,02,16,22.50
2016,03,02,02,17,20.90
2016,03,02,02,18,25.70
2016,03,02,02,19,25.70
2016,03,02,02,20,24.20
2016,03,02,02,21,14.50
2016,03,02,02,22,24.20
2016,03,02,02,23,24.20
2016,03,02,02,24,24.20
2016,03,02,02,25,25.70
2016,03,02,02,26,24.20
2016,03,02,02,27,19.30
2016,03,02,02,28,22.50
2016,03,02,02,29,22.50
2016,03,02,02,30,20.90
2016,03,02,02,31,22.50
2016,03,02,02,32,22.50
2016,03,02,02,33,22.50
2016,03,02,02,34,20.90
2016,03,02,02,35,24.20
2016,03,02,02,36,22.50
2016,03,02,02,37,25.70
2016,03,02,02,38,27.40
2016,03,02,02,39,30.60
2016,03,02,02,40,33.80
2016,03,02,02,41,37.00
2016,03,02,02,42,35.40
2016,03,02,02,43,37.00
2016,03,02,02,44,37.00
2016,03,02,02,45,37.00
2016,03,02,02,46,37.00
2016,03,02,02,47,33.80
2016,03,02,02,48,33.80
2016,03,02,02,49,32.20
2016,03,02,02,50,32.20
2016,03,02,02,51,33.80
2016,03,02,02,52,33.80
2016,03,02,02,53,33.80
2016,03,02,02,54,32.20
2016,03,02,02,55,38.60
2016,03,02,02,56,37.00
2016,03,02,02,57,37.00
2016,03,02,02,58,37.00
2016,03,02,02,59,37.00
2016,03,02,03,00,33.80
2016,03,02,03,01,30.60
2016,03,02,03,02,29.00
2016,03,02,03,03,29.00
2016,03,02,03,04,27.40
2016,03,02,03,05,29.00
2016,03,02,03,06,27.40
2016,03,02,03,07,25.70
2016,03,02,03,08,27.40
2016,03,02,03,09,25.70
2016,03,02,03,10,25.70
2016,03,02,03,11,25.70
2016,03,02,03,12,24.20
2016,03,02,03,13,27.40
2016,03,02,03,14,27.40
2016,03,02,03,15,25.70
2016,03,02,03,16,25.70
2016,03,02,03,17,29.00
2016,03,02,03,18,30.60
2016,03,02,03,19,29.00
2016,03,02,03,20,30.60
2016,03,02,03,21,29.00
2016,03,02,03,22,29.00
2016,03,02,03,23,29.00
2016,03,02,03,24,29.00
2016,03,02,03,25,29.00
2016,03,02,03,26,27.40
2016,03,02,03,27,27.40
2016,03,02,03,28,33.80
2016,03,02,03,29,35.40
2016,03,02,03,30,37.00
2016,03,02,03,31,33.80
2016,03,02,03,32,30.60
2016,03,02,03,33,33.80
2016,03,02,03,34,30.60
2016,03,02,03,35,30.60
2016,03,02,03,36,29.00
2016,03,02,03,37,32.20
2016,03,02,03,38,35.40
2016,03,02,03,39,35.40
2016,03,02,03,40,35.40
2016,03,02,03,41,37.00
2016,03,02,03,42,37.00
2016,03,02,03,43,38.60
2016,03,02,03,44,37.00
2016,03,02,03,45,33.80
2016,03,02,03,46,33.80
2016,03,02,03,47,32.20
2016,03,02,03,48,35.40
2016,03,02,03,49,33.80
2016,03,02,03,50,33.80
2016,03,02,03,51,25.70
2016,03,02,03,52,29.00
2016,03,02,03,53,27.40
2016,03,02,03,54,25.70
2016,03,02,03,55,20.90
2016,03,02,03,56,25.70
2016,03,02,03,57,25.70
2016,03,02,03,58,12.90
2016,03,02,03,59,19.30
2016,03,02,04,00,14.50
2016,03,02,04,01,12.90
2016,03,02,04,02,14.50
2016,03,02,04,03,12.90
2016,03,02,04,04,6.40
2016,03,02,04,05,4.80
2016,03,02,04,06,6.40
2016,03,02,04,07,4.80
2016,03,02,04,08,6.40
2016,03,02,04,09,6.40
2016,03,02,04,10,4.80
2016,03,02,04,11,9.60
2016,03,02,04,12,4.80
2016,03,02,04,13,8.10
2016,03,02,04,14,8.10
2016,03,02,04,15,6.40
2016,03,02,04,16,6.40
2016,03,02,04,17,6.40
2016,03,02,04,18,6.40
2016,03,02,04,19,24.20
2016,03,02,04,20,24.20
2016,03,02,04,21,22.50
2016,03,02,04,22,20.90
2016,03,02,04,23,17.70
2016,03,02,04,24,17.70
2016,03,02,04,25,24.20
2016,03,02,04,26,20.90
2016,03,02,04,27,20.90
2016,03,02,04,28,17.70
2016,03,02,04,29,20.90
2016,03,02,04,30,20.90
2016,03,02,04,31,20.90
2016,03,02,04,32,19.30
2016,03,02,04,33,20.90
2016,03,02,04,34,22.50
2016,03,02,04,35,20.90
2016,03,02,04,36,17.70
2016,03,02,04,37,16.10
2016,03,02,04,38,12.90
2016,03,02,04,39,12.90
2016,03,02,04,40,12.90
2016,03,02,04,41,16.10
2016,03,02,04,42,17.70
2016,03,02,04,43,17.70
2016,03,02,04,44,16.10
2016,03,02,04,45,17.70
2016,03,02,04,46,17.70
2016,03,02,04,47,19.30
2016,03,02,04,48,20.90
2016,03,02,04,49,17.70
2016,03,02,04,50,16.10
2016,03,02,04,51,17.70
2016,03,02,04,52,17.70
2016,03,02,04,53,22.50
2016,03,02,04,54,20.90
2016,03,02,04,55,24.20
2016,03,02,04,56,24.20
2016,03,02,04,57,22.50
2016,03,02,04,58,19.30
2016,03,02,04,59,17.70
2016,03,02,05,00,14.50
2016,03,02,05,01,16.10
2016,03,02,05,02,12.90
2016,03,02,05,03,12.90
2016,03,02,05,04,12.90
2016,03,02,05,05,12.90
2016,03,02,05,06,25.70
2016,03,02,05,07,25.70
2016,03,02,05,08,29.00
2016,03,02,05,09,29.00
2016,03,02,05,10,30.60
2016,03,02,05,11,29.00
2016,03,02,05,12,25.70
2016,03,02,05,13,24.20
2016,03,02,05,14,25.70
2016,03,02,05,15,27.40
2016,03,02,05,16,25.70
2016,03,02,05,17,27.40
2016,03,02,05,18,27.40
2016,03,02,05,19,27.40
2016,03,02,05,20,25.70
2016,03,02,05,21,24.20
2016,03,02,05,22,27.40
2016,03,02,05,23,25.70
2016,03,02,05,24,25.70
2016,03,02,05,25,25.70
2016,03,02,05,26,24.20
2016,03,02,05,27,19.30
2016,03,02,05,28,25.70
2016,03,02,05,29,24.20
2016,03,02,05,30,24.20
2016,03,02,05,31,24.20
2016,03,02,05,32,22.50
2016,03,02,05,33,22.50
2016,03,02,05,34,24.20
2016,03,02,05,35,29.00
2016,03,02,05,36,22.50
2016,03,02,05,37,19.30
2016,03,02,05,38,16.10
2016,03,02,05,39,16.10
2016,03,02,05,40,17.70
2016,03,02,05,41,22.50
2016,03,02,05,42,22.50
2016,03,02,05,43,19.30
2016,03,02,05,44,17.70
2016,03,02,05,45,14.50
2016,03,02,05,46,12.90
2016,03,02,05,47,17.70
2016,03,02,05,48,19.30
2016,03,02,05,49,17.70
2016,03,02,05,50,19.30
2016,03,02,05,51,17.70
2016,03,02,05,52,20.90
2016,03,02,05,53,22.50
2016,03,02,05,54,20.90
2016,03,02,05,55,19.30
2016,03,02,05,56,19.30
2016,03,02,05,57,16.10
2016,03,02,05,58,17.70
2016,03,02,05,59,17.70
2016,03,02,06,00,16.10
2016,03,02,06,01,17.70
2016,03,02,06,02,12.90
2016,03,02,06,03,8.10
2016,03,02,06,04,3.20
2016,03,02,06,05,8.10
2016,03,02,06,06,11.30
2016,03,02,06,07,11.30
2016,03,02,06,08,12.90
2016,03,02,06,09,16.10
2016,03,02,06,10,12.90
2016,03,02,06,11,9.60
2016,03,02,06,12,8.10
2016,03,02,06,13,11.30
2016,03,02,06,14,11.30
2016,03,02,06,15,12.90
2016,03,02,06,16,12.90
2016,03,02,06,17,12.90
2016,03,02,06,18,9.60
2016,03,02,06,19,8.10
2016,03,02,06,20,8.10
2016,03,02,06,21,9.60
2016,03,02,06,22,11.30
2016,03,02,06,23,11.30
2016,03,02,06,24,12.90
2016,03,02,06,25,12.90
2016,03,02,06,26,11.30
2016,03,02,06,27,12.90
2016,03,02,06,28,12.90
2016,03,02,06,29,11.30
2016,03,02,06,30,6.40
2016,03,02,06,31,8.10
2016,03,02,06,32,6.40
2016,03,02,06,33,8.10
2016,03,02,06,34,9.60
2016,03,02,06,35,9.60
2016,03,02,06,36,8.10
2016,03,02,06,37,11.30
2016,03,02,06,38,12.90
2016,03,02,06,39,11.30
2016,03,02,06,40,11.30
2016,03,02,06,41,11.30
2016,03,02,06,42,11.30
2016,03,02,06,43,11.30
2016,03,02,06,44,11.30
2016,03,02,06,45,11.30
2016,03,02,06,46,11.30
2016,03,02,06,47,11.30
2016,03,02,06,48,11.30
2016,03,02,06,49,9.60
2016,03,02,06,50,9.60
2016,03,02,06,51,9.60
2016,03,02,06,52,8.10
2016,03,02,06,53,8.10
2016,03,02,06,54,8.10
2016,03,02,06,55,9.60
2016,03,02,06,56,9.60
2016,03,02,06,57,8.10
2016,03,02,06,58,8.10
2016,03,02,06,59,8.10
2016,03,02,07,00,8.10
2016,03,02,07,01,8.10
2016,03,02,07,02,8.10
2016,03,02,07,03,12.90
2016,03,02,07,04,11.30
2016,03,02,07,05,6.40
2016,03,02,07,06,8.10
2016,03,02,07,07,8.10
2016,03,02,07,08,6.40
2016,03,02,07,09,6.40
2016,03,02,07,10,6.40
2016,03,02,07,11,6.40
2016,03,02,07,12,8.10
2016,03,02,07,13,8.10
2016,03,02,07,14,6.40
2016,03,02,07,15,8.10
2016,03,02,07,16,8.10
2016,03,02,07,17,8.10
2016,03,02,07,18,9.60
2016,03,02,07,19,6.40
2016,03,02,07,20,6.40
2016,03,02,07,21,8.10
2016,03,02,07,22,8.10
2016,03,02,07,23,8.10
2016,03,02,07,24,6.40
2016,03,02,07,25,8.10
2016,03,02,07,26,6.40
2016,03,02,07,27,4.80
2016,03,02,07,28,3.20
2016,03,02,07,29,3.20
2016,03,02,07,30,3.20
2016,03,02,07,31,3.20
2016,03,02,07,32,3.20
2016,03,02,07,33,3.20
2016,03,02,07,34,4.80
2016,03,02,07,35,4.80
2016,03,02,07,36,4.80
2016,03,02,07,37,4.80
2016,03,02,07,38,4.80
2016,03,02,07,39,8.10
2016,03,02,07,40,6.40
2016,03,02,07,41,6.40
2016,03,02,07,42,4.80
2016,03,02,07,43,3.20
2016,03,02,07,44,3.20
2016,03,02,07,45,3.20
2016,03,02,07,47,8.10
2016,03,02,07,48,8.10
2016,03,02,07,49,6.40
2016,03,02,07,50,6.40
2016,03,02,07,51,6.40
2016,03,02,07,52,8.10
2016,03,02,07,53,8.10
2016,03,02,07,54,6.40
2016,03,02,07,55,6.40
2016,03,02,07,56,6.40
2016,03,02,07,57,6.40
2016,03,02,07,58,6.40
2016,03,02,07,59,8.10
2016,03,02,08,00,6.40
2016,03,02,08,01,6.40
2016,03,02,08,02,6.40
2016,03,02,08,03,6.40
2016,03,02,08,04,6.40
2016,03,02,08,05,6.40
2016,03,02,08,06,6.40
2016,03,02,08,07,4.80
2016,03,02,08,08,4.80
2016,03,02,08,09,4.80
2016,03,02,08,10,4.80
2016,03,02,08,11,4.80
2016,03,02,08,12,4.80
2016,03,02,08,13,4.80
2016,03,02,08,14,4.80
2016,03,02,08,15,4.80
2016,03,02,08,16,4.80
2016,03,02,08,17,4.80
2016,03,02,08,18,3.20
2016,03,02,08,19,3.20
2016,03,02,08,20,3.20
2016,03,02,08,21,3.20
2016,03,02,08,22,3.20
2016,03,02,08,23,3.20
2016,03,02,08,24,1.60
2016,03,02,08,36,4.80
2016,03,02,08,37,12.90
2016,03,02,08,38,17.70
2016,03,02,08,39,20.90
2016,03,02,08,40,22.50
2016,03,02,08,41,25.70
2016,03,02,08,42,20.90
2016,03,02,08,43,20.90
2016,03,02,08,44,20.90
2016,03,02,08,45,16.10
2016,03,02,08,46,16.10
2016,03,02,08,47,16.10
2016,03,02,08,48,14.50
2016,03,02,08,49,17.70
2016,03,02,08,50,17.70
2016,03,02,08,51,17.70
2016,03,02,08,52,17.70
2016,03,02,08,53,20.90
2016,03,02,08,54,17.70
2016,03,02,08,55,17.70
2016,03,02,08,56,17.70
2016,03,02,08,57,20.90
2016,03,02,08,58,20.90
2016,03,02,08,59,20.90
2016,03,02,09,00,20.90
2016,03,02,09,01,20.90
2016,03,02,09,02,20.90
2016,03,02,09,03,20.90
2016,03,02,09,04,16.10
2016,03,02,09,05,16.10
2016,03,02,09,06,19.30
2016,03,02,09,07,17.70
2016,03,02,09,08,17.70
2016,03,02,09,09,22.50
2016,03,02,09,10,20.90
2016,03,02,09,11,22.50
2016,03,02,09,12,24.20
2016,03,02,09,13,20.90
2016,03,02,09,14,20.90
2016,03,02,09,15,20.90
2016,03,02,09,16,22.50
2016,03,02,09,17,24.20
2016,03,02,09,18,22.50
2016,03,02,09,19,22.50
2016,03,02,09,20,22.50
2016,03,02,09,21,20.90
2016,03,02,09,22,20.90
2016,03,02,09,23,20.90
2016,03,02,09,24,19.30
2016,03,02,09,25,19.30
2016,03,02,09,26,22.50
2016,03,02,09,27,22.50
2016,03,02,09,28,22.50
2016,03,02,09,29,24.20
2016,03,02,09,30,20.90
2016,03,02,09,31,22.50
2016,03,02,09,32,20.90
2016,03,02,09,33,19.30
2016,03,02,09,34,19.30
2016,03,02,09,35,20.90
2016,03,02,09,36,17.70
2016,03,02,09,37,20.90
2016,03,02,09,38,20.90
2016,03,02,09,39,20.90
2016,03,02,09,40,20.90
2016,03,02,09,41,19.30
2016,03,02,09,42,20.90
2016,03,02,09,43,20.90
2016,03,02,09,44,20.90
2016,03,02,09,45,20.90
2016,03,02,09,46,20.90
2016,03,02,09,47,20.90
2016,03,02,09,48,20.90
2016,03,02,09,49,22.50
2016,03,02,09,50,22.50
2016,03,02,09,51,22.50
2016,03,02,09,52,22.50
2016,03,02,09,53,22.50
2016,03,02,09,54,20.90
2016,03,02,09,55,20.90
2016,03,02,09,56,19.30
2016,03,02,09,57,19.30
2016,03,02,09,58,19.30
2016,03,02,09,59,19.30
2016,03,02,10,00,19.30
2016,03,02,10,01,17.70
2016,03,02,10,02,20.90
2016,03,02,10,03,22.50
2016,03,02,10,04,22.50
2016,03,02,10,05,20.90
2016,03,02,10,06,19.30
2016,03,02,10,07,16.10
2016,03,02,10,08,19.30
2016,03,02,10,09,16.10
2016,03,02,10,10,17.70
2016,03,02,10,11,17.70
2016,03,02,10,12,17.70
2016,03,02,10,13,17.70
2016,03,02,10,14,17.70
2016,03,02,10,15,16.10
2016,03,02,10,16,19.30
2016,03,02,10,17,16.10
2016,03,02,10,18,16.10
2016,03,02,10,19,17.70
2016,03,02,10,20,16.10
2016,03,02,10,21,17.70
2016,03,02,10,22,19.30
2016,03,02,10,23,16.10
2016,03,02,10,24,17.70
2016,03,02,10,25,17.70
2016,03,02,10,26,20.90
2016,03,02,10,27,20.90
2016,03,02,10,28,20.90
2016,03,02,10,29,20.90
2016,03,02,10,30,24.20
2016,03,02,10,31,22.50
2016,03,02,10,32,20.90
2016,03,02,10,33,22.50
2016,03,02,10,34,20.90
2016,03,02,10,35,22.50
2016,03,02,10,36,24.20
2016,03,02,10,37,25.70
2016,03,02,10,38,25.70
2016,03,02,10,39,27.40
2016,03,02,10,40,27.40
2016,03,02,10,41,27.40
2016,03,02,10,42,27.40
2016,03,02,10,43,25.70
2016,03,02,10,44,27.40
2016,03,02,10,45,27.40
2016,03,02,10,46,25.70
2016,03,02,10,47,29.00
2016,03,02,10,48,29.00
2016,03,02,10,49,29.00
2016,03,02,10,50,25.70
2016,03,02,10,51,29.00
2016,03,02,10,52,32.20
2016,03,02,10,53,35.40
2016,03,02,10,54,35.40
2016,03,02,10,55,32.20
2016,03,02,10,56,27.40
2016,03,02,10,57,29.00
2016,03,02,10,58,32.20
2016,03,02,10,59,32.20
2016,03,02,11,00,29.00
2016,03,02,11,01,29.00
2016,03,02,11,02,25.70
2016,03,02,11,03,27.40
2016,03,02,11,04,30.60
2016,03,02,11,05,33.80
2016,03,02,11,06,30.60
2016,03,02,11,07,33.80
2016,03,02,11,08,30.60
2016,03,02,11,09,33.80
2016,03,02,11,10,30.60
2016,03,02,11,11,33.80
2016,03,02,11,12,37.00
2016,03,02,11,13,35.40
2016,03,02,11,14,29.00
2016,03,02,11,15,27.40
2016,03,02,11,16,29.00
2016,03,02,11,17,33.80
2016,03,02,11,18,32.20
2016,03,02,11,19,35.40
2016,03,02,11,20,32.20
2016,03,02,11,21,32.20
2016,03,02,11,22,35.40
2016,03,02,11,23,33.80
2016,03,02,11,24,35.40
2016,03,02,11,25,35.40
2016,03,02,11,26,41.80
2016,03,02,11,27,43.50
2016,03,02,11,28,43.50
2016,03,02,11,29,41.80
2016,03,02,11,30,41.80
2016,03,02,11,31,43.50
2016,03,02,11,32,41.80
2016,03,02,11,33,38.60
2016,03,02,11,34,37.00
2016,03,02,11,35,37.00
2016,03,02,11,36,38.60
2016,03,02,11,37,35.40
2016,03,02,11,38,35.40
2016,03,02,11,39,35.40
2016,03,02,11,40,37.00
2016,03,02,11,41,37.00
2016,03,02,11,42,37.00
2016,03,02,11,43,38.60
2016,03,02,11,44,35.40
2016,03,02,11,45,37.00
2016,03,02,11,46,35.40
2016,03,02,11,47,37.00
2016,03,02,11,48,38.60
2016,03,02,11,49,38.60
2016,03,02,11,50,38.60
2016,03,02,11,51,38.60
2016,03,02,11,52,38.60
2016,03,02,11,53,33.80
2016,03,02,11,54,37.00
2016,03,02,11,55,37.00
2016,03,02,11,56,35.40
2016,03,02,11,57,35.40
2016,03,02,11,58,33.80
2016,03,02,11,59,30.60
2016,03,02,12,00,33.80
2016,03,02,12,01,30.60
2016,03,02,12,02,30.60
2016,03,02,12,03,30.60
2016,03,02,12,04,29.00
2016,03,02,12,05,29.00
2016,03,02,12,06,27.40
2016,03,02,12,07,25.70
2016,03,02,12,08,25.70
2016,03,02,12,09,24.20
2016,03,02,12,10,20.90
2016,03,02,12,11,20.90
2016,03,02,12,12,22.50
2016,03,02,12,13,19.30
2016,03,02,12,14,20.90
2016,03,02,12,15,20.90
2016,03,02,12,16,22.50
2016,03,02,12,17,19.30
2016,03,02,12,18,17.70
2016,03,02,12,19,20.90
2016,03,02,12,20,19.30
2016,03,02,12,21,20.90
2016,03,02,12,22,20.90
2016,03,02,12,23,24.20
2016,03,02,12,24,24.20
2016,03,02,12,25,27.40
2016,03,02,12,26,25.70
2016,03,02,12,27,29.00
2016,03,02,12,28,27.40
2016,03,02,12,29,29.00
2016,03,02,12,30,29.00
2016,03,02,12,31,29.00
2016,03,02,12,32,25.70
2016,03,02,12,33,25.70
2016,03,02,12,34,22.50
2016,03,02,12,35,25.70
2016,03,02,12,36,27.40
2016,03,02,12,37,30.60
2016,03,02,12,38,29.00
2016,03,02,12,39,30.60
2016,03,02,12,40,29.00
2016,03,02,12,41,30.60
2016,03,02,12,42,32.20
2016,03,02,12,43,32.20
2016,03,02,12,44,33.80
2016,03,02,12,45,32.20
2016,03,02,12,46,27.40
2016,03,02,12,47,29.00
2016,03,02,12,48,27.40
2016,03,02,12,49,27.40
2016,03,02,12,50,20.90
2016,03,02,12,51,20.90
2016,03,02,12,52,20.90
2016,03,02,12,53,20.90
2016,03,02,12,54,20.90
2016,03,02,12,55,19.30
2016,03,02,12,56,19.30
2016,03,02,12,57,20.90
2016,03,02,12,58,22.50
2016,03,02,12,59,22.50
2016,03,02,13,00,20.90
2016,03,02,13,01,17.70
2016,03,02,13,02,16.10
2016,03,02,13,03,17.70
2016,03,02,13,04,20.90
2016,03,02,13,05,17.70
2016,03,02,13,06,20.90
2016,03,02,13,07,20.90
2016,03,02,13,08,17.70
2016,03,02,13,09,17.70
2016,03,02,13,10,17.70
2016,03,02,13,11,16.10
2016,03,02,13,12,17.70
2016,03,02,13,13,16.10
2016,03,02,13,14,17.70
2016,03,02,13,15,16.10
2016,03,02,13,16,16.10
2016,03,02,13,17,17.70
2016,03,02,13,18,17.70
2016,03,02,13,19,16.10
2016,03,02,13,20,17.70
2016,03,02,13,21,17.70
2016,03,02,13,22,20.90
2016,03,02,13,23,20.90
2016,03,02,13,24,24.20
2016,03,02,13,25,22.50
2016,03,02,13,26,20.90
2016,03,02,13,27,17.70
2016,03,02,13,28,20.90
2016,03,02,13,29,20.90
2016,03,02,13,30,17.70
2016,03,02,13,31,20.90
2016,03,02,13,32,17.70
2016,03,02,13,33,20.90
2016,03,02,13,34,22.50
2016,03,02,13,35,24.20
2016,03,02,13,36,25.70
2016,03,02,13,37,25.70
2016,03,02,13,38,30.60
2016,03,02,13,39,38.60
2016,03,02,13,40,43.50
2016,03,02,13,41,49.90
2016,03,02,13,42,48.30
2016,03,02,13,43,49.90
2016,03,02,13,44,48.30
2016,03,02,13,45,46.70
2016,03,02,13,46,46.70
2016,03,02,13,47,43.50
2016,03,02,13,48,38.60
2016,03,02,13,49,38.60
2016,03,02,13,50,40.20
2016,03,02,13,51,40.20
2016,03,02,13,52,38.60
2016,03,02,13,53,41.80
2016,03,02,13,54,41.80
2016,03,02,13,55,41.80
2016,03,02,13,56,41.80
2016,03,02,13,57,41.80
2016,03,02,13,58,41.80
2016,03,02,13,59,43.50
2016,03,02,14,00,43.50
2016,03,02,14,01,46.70
2016,03,02,14,02,45.10
2016,03,02,14,03,46.70
2016,03,02,14,04,48.30
2016,03,02,14,05,49.90
2016,03,02,14,06,51.50
2016,03,02,14,07,53.10
2016,03,02,14,08,51.50
2016,03,02,14,09,48.30
2016,03,02,14,10,51.50
2016,03,02,14,11,48.30
2016,03,02,14,12,51.50
2016,03,02,14,13,51.50
2016,03,02,14,14,49.90
2016,03,02,14,15,49.90
2016,03,02,14,16,48.30
2016,03,02,14,17,51.50
2016,03,02,14,18,49.90
2016,03,02,14,19,53.10
2016,03,02,14,20,53.10
2016,03,02,14,21,53.10
2016,03,02,14,22,54.70
2016,03,02,14,23,54.70
2016,03,02,14,24,53.10
2016,03,02,14,25,57.90
2016,03,02,14,26,56.30
2016,03,02,14,27,57.90
2016,03,02,14,28,53.10
2016,03,02,14,29,53.10
2016,03,02,14,30,49.90
2016,03,02,14,31,49.90
2016,03,02,14,32,46.70
2016,03,02,14,33,48.30
2016,03,02,14,34,46.70
2016,03,02,14,35,41.80
2016,03,02,14,36,45.10
2016,03,02,14,37,46.70
2016,03,02,14,38,41.80
2016,03,02,14,39,45.10
2016,03,02,14,40,41.80
2016,03,02,14,41,43.50
2016,03,02,14,42,41.80
2016,03,02,14,43,40.20
2016,03,02,14,44,40.20
2016,03,02,14,45,40.20
2016,03,02,14,46,38.60
2016,03,02,14,47,40.20
2016,03,02,14,48,38.60
2016,03,02,14,49,37.00
2016,03,02,14,50,33.80
2016,03,02,14,51,37.00
2016,03,02,14,52,37.00
2016,03,02,14,53,35.40
2016,03,02,14,54,35.40
2016,03,02,14,55,37.00
2016,03,02,14,56,37.00
2016,03,02,14,57,35.40
2016,03,02,14,58,33.80
2016,03,02,14,59,33.80
2016,03,02,15,00,35.40
2016,03,02,15,01,35.40
2016,03,02,15,02,33.80
2016,03,02,15,03,35.40
2016,03,02,15,04,37.00
2016,03,02,15,05,40.20
2016,03,02,15,06,38.60
2016,03,02,15,07,43.50
2016,03,02,15,08,40.20
2016,03,02,15,09,48.30
2016,03,02,15,10,51.50
2016,03,02,15,11,59.50
2016,03,02,15,12,59.50
2016,03,02,15,13,59.50
2016,03,02,15,14,61.20
2016,03,02,15,15,59.50
2016,03,02,15,16,62.70
2016,03,02,15,17,62.70
2016,03,02,15,18,62.70
2016,03,02,15,19,61.20
2016,03,02,15,20,57.90
2016,03,02,15,21,59.50
2016,03,02,15,22,61.20
2016,03,02,15,23,64.40
2016,03,02,15,24,61.20
2016,03,02,15,25,66.00
2016,03,02,15,26,66.00
2016,03,02,15,27,66.00
2016,03,02,15,28,66.00
2016,03,02,15,29,62.70
2016,03,02,15,30,66.00
2016,03,02,15,31,69.20
2016,03,02,15,32,66.00
2016,03,02,15,33,66.00
2016,03,02,15,34,66.00
2016,03,02,15,35,67.60
2016,03,02,15,36,66.00
2016,03,02,15,37,66.00
2016,03,02,15,38,69.20
2016,03,02,15,39,70.80
2016,03,02,15,40,67.60
2016,03,02,15,41,70.80
2016,03,02,15,42,67.60
2016,03,02,15,43,69.20
2016,03,02,15,44,66.00
2016,03,02,15,45,67.60
2016,03,02,15,46,69.20
2016,03,02,15,47,62.70
2016,03,02,15,48,61.20
2016,03,02,15,49,64.40
2016,03,02,15,50,61.20
2016,03,02,15,51,62.70
2016,03,02,15,52,67.60
2016,03,02,15,53,59.50
2016,03,02,15,54,70.80
2016,03,02,15,55,67.60
2016,03,02,15,56,75.60
2016,03,02,15,57,78.80
2016,03,02,15,58,75.60
2016,03,02,15,59,77.30
2016,03,02,16,00,67.60
2016,03,02,16,01,67.60
2016,03,02,16,02,67.60
2016,03,02,16,03,67.60
2016,03,02,16,04,67.60
2016,03,02,16,05,64.40
2016,03,02,16,06,59.50
2016,03,02,16,07,54.70
2016,03,02,16,08,56.30
2016,03,02,16,09,53.10
2016,03,02,16,10,51.50
2016,03,02,16,11,51.50
2016,03,02,16,12,51.50
2016,03,02,16,13,54.70
2016,03,02,16,14,53.10
2016,03,02,16,15,54.70
2016,03,02,16,16,49.90
2016,03,02,16,17,49.90
2016,03,02,16,18,48.30
2016,03,02,16,19,48.30
2016,03,02,16,20,48.30
2016,03,02,16,21,46.70
2016,03,02,16,22,51.50
2016,03,02,16,23,45.10
2016,03,02,16,24,45.10
2016,03,02,16,25,48.30
2016,03,02,16,26,48.30
2016,03,02,16,27,48.30
2016,03,02,16,28,48.30
2016,03,02,16,29,46.70
2016,03,02,16,30,45.10
2016,03,02,16,31,51.50
2016,03,02,16,32,56.30
2016,03,02,16,33,67.60
2016,03,02,16,34,59.50
2016,03,02,16,35,62.70
2016,03,02,16,36,62.70
2016,03,02,16,37,61.20
2016,03,02,16,38,62.70
2016,03,02,16,39,57.90
2016,03,02,16,40,57.90
2016,03,02,16,41,56.30
2016,03,02,16,42,59.50
2016,03,02,16,43,62.70
2016,03,02,16,44,62.70
2016,03,02,16,45,64.40
2016,03,02,16,46,62.70
2016,03,02,16,47,62.70
2016,03,02,16,48,75.60
2016,03,02,16,49,72.40
2016,03,02,16,50,74.00
2016,03,02,16,51,66.00
2016,03,02,16,52,66.00
2016,03,02,16,53,62.70
2016,03,02,16,54,57.90
2016,03,02,16,55,69.20
2016,03,02,16,56,74.00
2016,03,02,16,57,70.80
2016,03,02,16,58,69.20
2016,03,02,16,59,72.40
2016,03,02,17,00,66.00
2016,03,02,17,01,59.50
2016,03,02,17,02,59.50
2016,03,02,17,03,57.90
2016,03,02,17,04,54.70
2016,03,02,17,05,56.30
2016,03,02,17,06,57.90
2016,03,02,17,07,56.30
2016,03,02,17,08,56.30
2016,03,02,17,09,59.50
2016,03,02,17,10,59.50
2016,03,02,17,11,59.50
2016,03,02,17,12,66.00
2016,03,02,17,13,57.90
2016,03,02,17,14,61.20
2016,03,02,17,15,59.50
2016,03,02,17,16,59.50
2016,03,02,17,17,61.20
2016,03,02,17,18,59.50
2016,03,02,17,19,61.20
2016,03,02,17,20,59.50
2016,03,02,17,21,59.50
2016,03,02,17,22,51.50
2016,03,02,17,23,51.50
2016,03,02,17,24,51.50
2016,03,02,17,25,59.50
2016,03,02,17,26,54.70
2016,03,02,17,27,57.90
2016,03,02,17,28,56.30
2016,03,02,17,29,56.30
2016,03,02,17,30,57.90
2016,03,02,17,31,51.50
2016,03,02,17,32,51.50
2016,03,02,17,33,49.90
2016,03,02,17,34,51.50
2016,03,02,17,35,51.50
2016,03,02,17,36,59.50